EW7349 Weather Reports


time (UTC)temp
C
wind
direction
speed
KPH
gust
KPH
rain 1hr
cm
rain 24hr
cm
rain mn
cm
humidity
%
barometer
mb
20260510234434 18 44 0.0 1.6 0.08 0.08 0.08 85 1014.8
20260510233930 18 44 1.6 6.4 0.08 0.08 0.08 84 1014.8
20260510233424 19 119 1.6 6.4 0.08 0.08 0.08 84 1014.7
20260510233405 19 67 1.6 4.8 0.05 0.05 0.05 84 1014.7
20260510232411 19 61 1.6 6.4 0.05 0.05 0.05 83 1014.7
20260510231912 19 327 1.6 6.4 0.03 0.03 0.03 82 1014.7
20260510231412 19 28 1.6 6.4 0.03 0.03 0.03 82 1014.7
20260510230913 19 318 1.6 6.4 0.00 0.00 0.00 81 1014.8
20260510230410 20 281 1.6 6.4 0.00 0.00 0.00 80 1014.5
20260510230125 20 32 3.2 11.3 0.00 0.00 0.00 79 1014.1
20260510225410 20 129 3.2 11.3 0.00 0.00 0.00 78 1013.8
20260510224909 20 84 1.6 12.9 0.00 0.00 0.00 77 1013.6
20260510224409 20 87 1.6 12.9 0.00 0.00 0.00 77 1013.4
20260510223910 21 76 3.2 12.9 0.00 0.00 0.00 75 1013.4
20260510223409 21 107 3.2 12.9 0.00 0.00 0.00 74 1013.5
20260510222906 21 79 3.2 14.5 0.00 0.00 0.00 72 1013.7
20260510222407 21 54 3.2 14.5 0.00 0.00 0.00 71 1013.6
20260510221906 22 51 1.6 4.8 0.00 0.00 0.00 71 1013.5
20260510221637 22 70 1.6 4.8 0.00 0.00 0.00 68 1013.2
20260510220909 22 26 1.6 3.2 0.00 0.00 0.00 66 1013.4
20260510220405 22 340 1.6 3.2 0.00 0.00 0.00 64 1013.5
20260510215905 23 296 0.0 3.2 0.00 0.00 0.00 61 1013.2
20260510215359 23 52 0.0 4.8 0.00 0.00 0.00 58 1012.9
20260510214853 23 89 1.6 8.0 0.00 0.00 0.00 57 1012.6
20260510214349 23 103 3.2 12.9 0.00 0.00 0.00 57 1012.4
20260510213841 23 74 3.2 12.9 0.00 0.00 0.00 56 1012.3
20260510213335 23 44 1.6 9.7 0.00 0.00 0.00 54 1012.3
20260510212829 24 284 3.2 11.3 0.00 0.00 0.00 53 1012.3
20260510212324 24 71 4.8 11.3 0.00 0.00 0.00 52 1012.3
20260510211817 25 39 4.8 16.1 0.00 0.00 0.00 51 1012.2
20260510211311 25 97 3.2 16.1 0.00 0.00 0.00 50 1012.2
20260510210805 26 111 4.8 14.5 0.00 0.00 0.00 48 1012.2
20260510210259 26 89 4.8 14.5 0.00 0.00 0.00 46 1012.2
20260510205753 26 101 1.6 9.7 0.00 0.00 0.00 44 1012.0
20260510205246 26 340 1.6 6.4 0.00 0.00 0.00 47 1011.8
20260510204742 26 26 0.0 3.2 0.00 0.00 0.00 47 1011.7
20260510204235 26 26 0.0 3.2 0.00 0.00 0.00 43 1011.6
20260510203729 26 19 0.0 4.8 0.00 0.00 0.00 44 1011.5
20260510203223 27 24 1.6 4.8 0.00 0.00 0.00 39 1011.5
20260510202939 27 263 1.6 6.4 0.00 0.00 0.00 39 1011.4
20260510202211 27 240 0.0 6.4 0.00 0.00 0.00 39 1011.4
20260510201705 26 218 0.0 3.2 0.00 0.00 0.00 40 1011.4
20260510201159 27 279 0.0 4.8 0.00 0.00 0.00 44 1011.4
20260510200921 27 279 0.0 4.8 0.00 0.00 0.00 40 1011.3
20260510200409 27 239 1.6 4.8 0.00 0.00 0.00 38 1011.4
20260510195643 27 110 0.0 4.8 0.00 0.00 0.00 38 1011.5
20260510195136 27 240 0.0 3.2 0.00 0.00 0.00 38 1011.6
20260510194630 27 188 1.6 4.8 0.00 0.00 0.00 39 1011.6
20260510194346 27 191 1.6 8.0 0.00 0.00 0.00 36 1011.6
20260510193839 28 344 1.6 8.0 0.00 0.00 0.00 35 1011.6
20260510193112 29 265 3.2 9.7 0.00 0.00 0.00 34 1011.7
20260510192830 28 306 3.2 9.7 0.00 0.00 0.00 33 1011.9
20260510192104 29 113 3.2 11.3 0.00 0.00 0.00 33 1011.8
20260510192038 29 72 1.6 11.3 0.00 0.00 0.00 33 1011.9
20260510191107 29 119 3.2 11.3 0.00 0.00 0.00 36 1012.0
20260510190602 28 114 3.2 11.3 0.00 0.00 0.00 34 1012.2
20260510185558 27 28 1.6 11.3 0.00 0.00 0.00 37 1012.3
20260510185100 27 222 1.6 11.3 0.00 0.00 0.00 39 1012.2
20260510184559 28 242 1.6 4.8 0.00 0.00 0.00 33 1012.2
20260510184058 30 159 1.6 4.8 0.00 0.00 0.00 36 1012.3
20260510183559 28 131 1.6 6.4 0.00 0.00 0.00 36 1012.3
20260510183058 29 141 1.6 6.4 0.00 0.00 0.00 34 1012.3
20260510182556 29 250 1.6 6.4 0.00 0.00 0.00 35 1012.3
20260510182056 29 217 3.2 6.4 0.00 0.00 0.00 38 1012.4
20260510181559 29 140 3.2 6.4 0.00 0.00 0.00 37 1012.4
20260510181056 30 155 1.6 6.4 0.00 0.00 0.00 37 1012.5
20260510180814 29 113 1.6 6.4 0.00 0.00 0.00 38 1012.5
20260510180055 28 130 1.6 8.0 0.00 0.00 0.00 40 1012.6
20260510175549 28 216 1.6 8.0 0.00 0.00 0.00 37 1012.7
20260510175309 28 5 1.6 4.8 0.00 0.00 0.00 37 1012.7
20260510174543 28 49 1.6 4.8 0.00 0.00 0.00 37 1012.8
20260510174044 27 204 1.6 4.8 0.00 0.00 0.00 40 1012.8
20260510173544 27 34 1.6 4.8 0.00 0.00 0.00 38 1012.9
20260510173043 27 246 3.2 9.7 0.00 0.00 0.00 38 1013.0
20260510172544 28 235 3.2 9.7 0.00 0.00 0.00 38 1013.0
20260510172045 29 14 1.6 6.4 0.00 0.00 0.00 36 1013.0
20260510171544 29 57 1.6 6.4 0.00 0.00 0.00 36 1012.9
20260510171043 28 42 3.2 9.7 0.00 0.00 0.00 37 1013.0
20260510170545 28 31 3.2 9.7 0.00 0.00 0.00 37 1013.1
20260510170040 28 229 3.2 9.7 0.00 0.00 0.00 38 1013.0
20260510165540 28 254 1.6 9.7 0.00 0.00 0.00 39 1013.0
20260510165259 28 228 1.6 6.4 0.00 0.00 0.00 37 1013.0
20260510164810 28 332 1.6 4.8 0.00 0.00 0.00 40 1013.2
20260510164039 28 113 3.2 9.7 0.00 0.00 0.00 41 1013.2
20260510163540 27 32 3.2 9.7 0.00 0.00 0.00 41 1013.2
20260510163040 27 268 3.2 12.9 0.00 0.00 0.00 41 1013.2
20260510162540 26 109 1.6 12.9 0.00 0.00 0.00 41 1013.4
20260510162041 26 259 1.6 8.0 0.00 0.00 0.00 40 1013.4
20260510161540 26 258 1.6 8.0 0.00 0.00 0.00 41 1013.5
20260510161314 26 82 1.6 8.0 0.00 0.00 0.00 42 1013.5
20260510160541 26 71 1.6 9.7 0.00 0.00 0.00 41 1013.6
20260510160302 26 289 1.6 9.7 0.00 0.00 0.00 41 1013.6
20260510155540 25 32 3.2 9.7 0.00 0.00 0.00 44 1013.7
20260510155258 25 196 3.2 8.0 0.00 0.00 0.00 43 1013.7
20260510154806 25 217 1.6 6.4 0.00 0.00 0.00 42 1013.7
20260510154040 25 167 1.6 4.8 0.00 0.00 0.00 45 1013.7
20260510153804 25 342 1.6 6.4 0.00 0.00 0.00 47 1013.7
20260510153040 25 56 1.6 8.0 0.00 0.00 0.00 46 1013.8
20260510152757 25 237 1.6 8.0 0.00 0.00 0.00 48 1013.8
20260510152035 25 113 1.6 4.8 0.00 0.00 0.00 47 1013.7
20260510151531 24 143 1.6 8.0 0.00 0.00 0.00 47 1013.7
20260510151031 24 246 3.2 9.7 0.00 0.00 0.00 47 1013.8
20260510151019 23 229 3.2 9.7 0.00 0.00 0.00 49 1013.7
20260510150251 23 254 1.6 4.8 0.00 0.00 0.00 47 1013.7
20260510145527 23 246 1.6 4.8 0.00 0.00 0.00 48 1013.6
20260510145025 23 132 1.6 6.4 0.00 0.00 0.00 49 1013.6
20260510144525 23 226 1.6 6.4 0.00 0.00 0.00 52 1013.6
20260510144027 23 90 1.6 9.7 0.00 0.00 0.00 51 1013.5
20260510143523 22 68 1.6 9.7 0.00 0.00 0.00 49 1013.6
20260510143024 22 297 1.6 6.4 0.00 0.00 0.00 51 1013.5
20260510142526 22 248 0.0 6.4 0.00 0.00 0.00 54 1013.4
20260510142023 22 73 1.6 3.2 0.00 0.00 0.00 53 1013.2
20260510141741 21 245 1.6 3.2 0.00 0.00 0.00 54 1013.2
20260510141021 21 222 1.6 3.2 0.00 0.00 0.00 60 1013.2
20260510140519 20 99 1.6 4.8 0.00 0.00 0.00 58 1013.1
20260510140019 20 153 1.6 4.8 0.00 0.00 0.00 58 1013.2
20260510135516 20 290 1.6 4.8 0.00 0.00 0.00 62 1013.0
20260510135225 18 239 1.6 4.8 0.00 0.00 0.00 64 1013.1
20260510135109 19 209 1.6 4.8 0.00 0.00 0.00 62 1013.1
20260510134009 18 309 1.6 4.8 0.00 0.00 0.00 68 1013.1
20260510133503 17 229 1.6 4.8 0.00 0.00 0.00 69 1013.1
20260510133446 17 245 1.6 4.8 0.00 0.00 0.00 71 1013.1
20260510132449 17 132 1.6 4.8 0.00 0.00 0.00 73 1013.1
20260510132431 16 281 0.0 3.2 0.00 0.00 0.00 75 1013.1
20260510131439 16 5 0.0 3.2 0.00 0.00 0.00 77 1013.0
20260510130934 16 223 0.0 3.2 0.00 0.00 0.00 80 1013.0
20260510130426 15 215 0.0 3.2 0.00 0.00 0.00 81 1013.0
20260510125921 15 213 0.0 3.2 0.00 0.00 0.00 82 1013.1
20260510125414 15 212 0.0 3.2 0.00 0.00 0.00 83 1013.2
20260510124909 14 248 0.0 1.6 0.00 0.00 0.00 84 1013.2
20260510124402 14 248 0.0 1.6 0.00 0.00 0.00 86 1013.4
20260510123856 13 309 0.0 1.6 0.00 0.00 0.00 88 1013.5
20260510123350 13 312 0.0 4.8 0.00 0.00 0.00 88 1013.5
20260510122845 13 312 1.6 4.8 0.00 0.00 0.00 89 1013.5
20260510122338 13 241 1.6 4.8 0.00 0.00 0.00 90 1013.4
20260510121832 12 242 0.0 3.2 0.00 0.00 0.00 91 1013.2
20260510121326 12 205 0.0 1.6 0.00 0.00 0.00 91 1013.2
20260510120821 12 269 0.0 1.6 0.00 0.00 0.00 91 1013.1
20260510120314 12 227 0.0 3.2 0.00 0.00 0.00 91 1013.1
20260510115808 12 265 0.0 3.2 0.00 0.00 0.00 91 1013.1
20260510115305 12 198 0.0 3.2 0.00 0.00 0.00 91 1013.0
20260510114755 11 200 0.0 3.2 0.00 0.00 0.00 91 1012.9
20260510114731 11 215 0.0 6.4 0.00 0.00 0.00 91 1012.8
20260510113744 11 215 0.0 6.4 0.00 0.00 0.00 91 1012.8
20260510113240 11 211 0.0 1.6 0.00 0.00 0.00 90 1012.7
20260510112733 11 211 0.0 1.6 0.00 0.00 0.00 90 1012.7
20260510112226 11 211 0.0 0.0 0.00 0.00 0.00 90 1012.6
20260510111721 11 211 0.0 0.0 0.00 0.00 0.00 90 1012.4
20260510111431 11 211 0.0 0.0 0.00 0.00 0.00 90 1012.3
20260510110704 11 211 0.0 1.6 0.00 0.00 0.00 89 1012.2
20260510110158 11 211 0.0 1.6 0.00 0.00 0.00 89 1012.2
20260510105653 11 211 0.0 1.6 0.00 0.00 0.00 89 1012.1
20260510105629 11 211 0.0 1.6 0.00 0.00 0.00 89 1012.0
20260510104640 11 211 0.0 0.0 0.00 0.00 0.00 89 1012.0
20260510104400 11 211 0.0 0.0 0.00 0.00 0.00 89 1011.9
20260510103850 11 211 0.0 0.0 0.00 0.00 0.00 88 1011.8
20260510103122 11 211 0.0 0.0 0.00 0.00 0.00 88 1011.8
20260510102617 11 211 0.0 0.0 0.00 0.00 0.00 88 1011.7
20260510102110 11 211 0.0 0.0 0.00 0.00 0.00 88 1011.6
20260510101604 11 211 0.0 0.0 0.00 0.00 0.00 88 1011.6
20260510101058 11 211 0.0 0.0 0.00 0.00 0.00 88 1011.6
20260510100552 11 211 0.0 0.0 0.00 0.00 0.00 88 1011.6
20260510100046 11 211 0.0 0.0 0.00 0.00 0.00 88 1011.6
20260510095541 11 211 0.0 0.0 0.00 0.00 0.00 88 1011.6
20260510095034 11 211 0.0 0.0 0.00 0.00 0.00 88 1011.6
20260510094528 11 211 0.0 1.6 0.00 0.00 0.00 89 1011.6
20260510094023 11 211 0.0 1.6 0.00 0.00 0.00 89 1011.5
20260510093516 11 211 0.0 1.6 0.00 0.00 0.00 88 1011.4
20260510093011 11 211 0.0 0.0 0.00 0.00 0.00 88 1011.4
20260510092504 11 211 0.0 0.0 0.00 0.00 0.00 88 1011.3
20260510091958 12 211 0.0 0.0 0.00 0.00 0.00 88 1011.3
20260510091452 12 211 0.0 0.0 0.00 0.00 0.00 88 1011.3
20260510090946 12 211 0.0 0.0 0.00 0.00 0.00 88 1011.3
20260510090440 12 211 0.0 0.0 0.00 0.00 0.00 88 1011.2
20260510085934 12 211 0.0 0.0 0.00 0.00 0.00 88 1011.1
20260510085428 12 211 0.0 0.0 0.00 0.00 0.00 88 1011.1
20260510084922 12 211 0.0 0.0 0.00 0.00 0.00 88 1011.1
20260510084728 12 211 0.0 0.0 0.00 0.00 0.00 88 1011.1
20260510084637 12 211 0.0 0.0 0.00 0.00 0.00 88 1011.1
20260510083405 12 211 0.0 0.0 0.00 0.00 0.00 88 1011.1
20260510082904 12 211 0.0 0.0 0.00 0.00 0.00 87 1011.0
20260510082622 12 211 0.0 0.0 0.00 0.00 0.00 87 1010.9
20260510082122 12 211 0.0 0.0 0.00 0.00 0.00 87 1011.0
20260510081403 12 211 0.0 1.6 0.00 0.00 0.00 87 1011.0
20260510081124 12 211 0.0 1.6 0.00 0.00 0.00 86 1011.0
20260510080626 12 209 0.0 1.6 0.00 0.00 0.00 86 1010.9
20260510080119 12 209 0.0 0.0 0.00 0.00 0.00 86 1010.8
20260510075356 12 209 0.0 0.0 0.00 0.00 0.00 86 1010.8
20260510074859 12 209 0.0 0.0 0.00 0.00 0.00 86 1010.8
20260510074358 12 209 0.0 0.0 0.00 0.00 0.00 86 1010.6
20260510073856 12 209 0.0 0.0 0.00 0.00 0.00 85 1010.6
20260510073620 12 209 0.0 0.0 0.00 0.00 0.00 85 1010.5
20260510072853 12 209 0.0 0.0 0.00 0.00 0.00 85 1010.5
20260510072355 13 209 0.0 0.0 0.00 0.00 0.00 84 1010.6
20260510071851 13 209 0.0 0.0 0.00 0.00 0.00 84 1010.5
20260510071349 13 209 0.0 0.0 0.00 0.00 0.00 84 1010.5
20260510071117 13 209 0.0 0.0 0.00 0.00 0.00 84 1010.4
20260510070350 13 209 0.0 0.0 0.00 0.00 0.00 84 1010.3
20260510065849 13 209 0.0 0.0 0.00 0.00 0.00 84 1010.3
20260510065348 13 209 0.0 0.0 0.00 0.00 0.00 84 1010.3
20260510065104 13 209 0.0 0.0 0.00 0.00 0.00 83 1010.2
20260510064349 13 209 0.0 0.0 0.00 0.00 0.00 83 1010.2
20260510063851 13 209 0.0 0.0 0.00 0.00 0.00 83 1010.1
20260510063344 13 209 0.0 0.0 0.00 0.00 0.00 83 1010.1
20260510062845 13 209 0.0 0.0 0.00 0.00 0.00 83 1010.0
20260510062346 13 209 0.0 0.0 0.00 0.00 0.00 83 1010.0
20260510061846 13 209 0.0 0.0 0.00 0.00 0.00 83 1010.0
20260510061346 13 209 0.0 0.0 0.00 0.00 0.00 82 1010.1
20260510060844 13 209 0.0 0.0 0.00 0.00 0.00 82 1010.0
20260510060346 14 209 0.0 0.0 0.00 0.00 0.00 82 1010.1
20260510055845 14 209 0.0 0.0 0.00 0.00 0.00 82 1010.1
20260510055834 14 209 0.0 0.0 0.00 0.00 0.00 82 1010.2
20260510054844 14 209 0.0 1.6 0.00 0.00 0.00 82 1010.1
20260510054347 14 209 0.0 1.6 0.00 0.00 0.00 82 1010.2
20260510053845 14 209 0.0 0.0 0.00 0.00 0.00 82 1010.2
20260510053345 14 209 0.0 0.0 0.00 0.00 0.00 81 1010.1
20260510052846 14 209 0.0 1.6 0.00 0.00 0.00 81 1010.1
20260510052833 14 209 0.0 1.6 0.00 0.00 0.00 81 1010.2
20260510051843 14 146 0.0 0.0 0.00 0.00 0.00 81 1010.2
20260510051343 15 146 0.0 0.0 0.00 0.00 0.00 81 1010.1
20260510050843 15 146 0.0 0.0 0.00 0.00 0.00 81 1010.2
20260510050343 15 146 0.0 0.0 0.00 0.00 0.00 81 1010.1
20260510050325 15 147 0.0 0.0 0.00 0.00 0.00 81 1010.1
20260510045343 15 146 0.0 0.0 0.00 0.00 0.00 81 1010.1
20260510044844 15 146 0.0 0.0 0.00 0.00 0.00 81 1010.1
20260510044342 15 146 0.0 0.0 0.00 0.00 0.00 80 1010.1
20260510043839 15 146 0.0 0.0 0.00 0.00 0.00 81 1009.9
20260510043339 15 146 0.0 0.0 0.00 0.00 0.00 80 1010.0
20260510042840 15 146 0.0 0.0 0.00 0.00 0.00 80 1009.9
20260510042338 15 146 0.0 1.6 0.00 0.00 0.00 80 1009.8
20260510041835 15 146 0.0 4.8 0.00 0.00 0.00 80 1009.9
20260510041810 15 213 0.0 4.8 0.00 0.00 0.00 80 1009.9
20260510040831 15 185 0.0 3.2 0.00 0.00 0.00 80 1009.9
20260510040332 15 201 0.0 0.0 0.00 0.00 0.00 79 1010.0
20260510035829 15 201 0.0 0.0 0.00 0.00 0.00 79 1009.9
20260510035550 15 201 0.0 0.0 0.00 0.00 0.00 79 1009.9
20260510034830 15 201 0.0 0.0 0.00 0.00 0.00 79 1010.0
20260510034329 15 201 0.0 0.0 0.00 0.00 0.00 79 1010.0
20260510033830 16 201 0.0 0.0 0.00 0.00 0.00 79 1010.1
20260510033328 16 201 0.0 0.0 0.00 0.00 0.00 79 1009.9
20260510032830 16 201 0.0 0.0 0.00 0.00 0.00 78 1009.9
20260510032330 16 201 0.0 0.0 0.00 0.00 0.00 78 1009.9
20260510031829 16 201 0.0 0.0 0.00 0.00 0.00 78 1009.8
20260510031331 16 201 0.0 0.0 0.00 0.00 0.00 77 1009.8
20260510031101 16 201 0.0 0.0 0.00 0.00 0.00 77 1009.7
20260510030330 16 201 0.0 0.0 0.00 0.00 0.00 77 1009.7
20260510030053 16 201 0.0 0.0 0.00 0.00 0.00 76 1009.6
20260510025326 16 201 0.0 0.0 0.00 0.00 0.00 76 1009.6
20260510024830 16 201 0.0 0.0 0.00 0.00 0.00 76 1009.7
20260510024324 16 201 0.0 0.0 0.00 0.00 0.00 76 1009.6
20260510023824 16 201 0.0 0.0 0.00 0.00 0.00 76 1009.5
20260510023549 16 201 0.0 0.0 0.00 0.00 0.00 75 1009.4
20260510022820 16 201 0.0 0.0 0.00 0.00 0.00 75 1009.4
20260510022313 17 201 0.0 0.0 0.00 0.00 0.00 74 1009.5
20260510021807 17 201 0.0 0.0 0.00 0.00 0.00 74 1009.4
20260510021301 17 201 0.0 0.0 0.00 0.00 0.00 74 1009.4
20260510020755 17 201 0.0 0.0 0.00 0.00 0.00 73 1009.3
20260510020250 17 201 0.0 0.0 0.00 0.00 0.00 73 1009.3
20260510015744 17 201 0.0 0.0 0.00 0.00 0.00 73 1009.2
20260510015246 17 201 0.0 0.0 0.00 0.00 0.00 72 1009.1
20260510014747 17 201 0.0 0.0 0.00 0.00 0.00 73 1009.0
20260510014246 17 201 0.0 0.0 0.00 0.00 0.00 73 1009.0
20260510013745 17 201 0.0 0.0 0.00 0.00 0.00 72 1008.9
20260510013244 18 201 0.0 0.0 0.00 0.00 0.00 72 1008.8
20260510012744 18 201 0.0 0.0 0.00 0.00 0.00 71 1008.8
20260510012241 18 201 0.0 0.0 0.00 0.00 0.00 71 1008.6
20260510011741 18 201 0.0 0.0 0.00 0.00 0.00 71 1008.6
20260510011239 18 201 0.0 0.0 0.00 0.00 0.00 71 1008.5
20260510010739 18 201 0.0 0.0 0.00 0.00 0.00 70 1008.5
20260510010239 18 201 0.0 0.0 0.00 0.00 0.00 70 1008.4
20260510005737 18 201 0.0 0.0 0.00 0.00 0.00 69 1008.5
20260510005500 19 201 0.0 0.0 0.00 0.00 0.00 69 1008.4
20260510004736 19 201 0.0 1.6 0.00 0.00 0.00 69 1008.3
20260510004234 19 201 0.0 1.6 0.00 0.00 0.00 69 1008.2
20260510003734 20 201 0.0 0.0 0.00 0.00 0.00 68 1008.1
20260510003230 20 201 0.0 0.0 0.00 0.00 0.00 68 1008.1
20260510002728 20 201 0.0 0.0 0.00 0.00 0.00 67 1008.1
20260510002228 20 201 0.0 0.0 0.00 0.00 0.00 66 1008.0
20260510001722 20 201 0.0 0.0 0.00 0.00 0.00 66 1008.1
20260510001216 20 201 0.0 0.0 0.00 0.00 0.00 66 1008.0
20260510000710 21 201 0.0 0.0 0.00 0.00 0.00 65 1008.1
20260510000433 21 201 0.0 0.0 0.00 0.00 0.00 64 1008.0
20260509235658 21 201 0.0 0.0 0.00 0.00 0.00 64 1007.9
20260509235153 21 201 0.0 0.0 0.00 0.00 0.00 63 1007.8
20260509234646 21 201 0.0 0.0 0.00 0.00 0.00 61 1007.8